Weather History for Salt Lake City, UT

Change the Weather History Date:

Thursday, March 6, 2014

  Actual Average Record
Temperature  
Mean Temperature 54 °F 41 °F  
Max Temperature 62 °F 51 °F 70 °F (1879)
Min Temperature 46 °F 31 °F 10 °F (1964)
Degree Days  
Heating Degree Days 11 24  
Month to date heating degree days 83 149  
Since 1 July heating degree days 4070 4405  
Cooling Degree Days 0 0  
Month to date cooling degree days 0 0  
Year to date cooling degree days 0 0  
Growing Degree Days 4 (Base 50)    
Moisture  
Dew Point 33 °F    
Average Humidity 60    
Maximum Humidity 93    
Minimum Humidity 27    
Precipitation  
Precipitation 0.09 in 0.05 in 0.66 in (1884)
Month to date precipitation 0.30 0.31  
Year to date precipitation 3.07 2.81  
Snow  
Snow 0.00 in 0.30 in 6.30 in (1998)
Month to date snowfall 0.0 1.6  
Since 1 July snowfall 35.0 47.0  
Snow Depth 0.00 in    
Sea Level Pressure  
Sea Level Pressure 29.89 in    
Wind  
Wind Speed 9 mph (East)    
Max Wind Speed 25 mph    
Max Gust Speed 31 mph    
Visibility 10 miles    
Events Rain    
T = Trace of Precipitation, MM = Missing Value Source: NWS Daily Summary

Daily Weather History Graph

Daily Weather History Graph

Search for Another Location

Airport:

Trip Planner

Search our weather history database for the weather conditions in past years. The results will help you decide how hot, cold, wet, or windy it might be!

Date:

Astronomy

Mar. 06, 2014 Rise Set
Actual Time 6:53 AM MST 6:24 PM MST
Civil Twilight 6:26 AM MST 6:52 PM MST
Nautical Twilight 5:54 AM MST 7:23 PM MST
Astronomical Twilight 5:23 AM MST 7:55 PM MST
Moon 10:02 AM MST (3/6) No Moon Set
Length of Visible Light 12h 25m
Length of Day
11h 30m
Waxing Crescent, 33% of the Moon is Illuminated
Mar 6
Waxing Crescent
Mar 8
First Quarter
Mar 16
Full
Mar 23
Last Quarter
Mar 30
New

Hourly Weather History & Observations

Time (MST) Temp. Windchill Dew Point Humidity Pressure Visibility Wind Dir Wind Speed Gust Speed Precip Events Conditions
12:53 AM 50.0 °F - 27.0 °F 41% 29.95 in 10.0 mi SE 12.7 mph - N/A   Mostly Cloudy
1:53 AM 50.0 °F - 27.0 °F 41% 29.94 in 10.0 mi SE 10.4 mph - N/A   Mostly Cloudy
2:53 AM 48.9 °F - 28.0 °F 44% 29.94 in 10.0 mi SE 9.2 mph - N/A   Mostly Cloudy
3:53 AM 50.0 °F - 25.0 °F 38% 29.91 in 10.0 mi SSE 10.4 mph - N/A   Mostly Cloudy
4:53 AM 50.0 °F - 25.0 °F 38% 29.92 in 10.0 mi SE 8.1 mph - N/A   Mostly Cloudy
5:53 AM 51.1 °F - 24.1 °F 35% 29.91 in 10.0 mi SE 11.5 mph - N/A   Mostly Cloudy
6:53 AM 53.1 °F - 23.0 °F 31% 29.90 in 10.0 mi SSE 12.7 mph - N/A   Mostly Cloudy
7:53 AM 53.1 °F - 23.0 °F 31% 29.88 in 10.0 mi SE 10.4 mph - N/A   Mostly Cloudy
8:53 AM 55.0 °F - 23.0 °F 29% 29.87 in 10.0 mi ESE 12.7 mph - N/A   Overcast
9:53 AM 57.9 °F - 21.9 °F 25% 29.92 in 10.0 mi West 13.8 mph 17.3 mph N/A   Overcast
10:10 AM 57.9 °F - 25.0 °F 28% 30.01 in 10.0 mi NW 11.5 mph - N/A   Mostly Cloudy
10:53 AM 57.9 °F - 30.0 °F 35% 29.92 in 10.0 mi NNW 15.0 mph - N/A   Mostly Cloudy
11:53 AM 57.0 °F - 33.1 °F 40% 29.89 in 10.0 mi Calm Calm - N/A   Mostly Cloudy
12:53 PM 57.0 °F - 30.0 °F 36% 29.87 in 10.0 mi ESE 3.5 mph - 0.00 in Rain Light Rain
1:53 PM 59.0 °F - 33.1 °F 38% 29.83 in 10.0 mi ENE 6.9 mph - 0.00 in   Mostly Cloudy
2:53 PM 61.0 °F - 27.0 °F 27% 29.79 in 10.0 mi South 3.5 mph - N/A   Mostly Cloudy
3:53 PM 60.1 °F - 28.9 °F 31% 29.76 in 10.0 mi SSE 8.1 mph - N/A   Overcast
4:44 PM 55.0 °F - 39.9 °F 57% 29.88 in 10.0 mi North 15.0 mph 24.2 mph N/A   Overcast
4:53 PM 54.0 °F - 42.1 °F 64% 29.81 in 10.0 mi NNE 17.3 mph - N/A   Overcast
5:30 PM 53.1 °F - 42.1 °F 66% 29.92 in 10.0 mi NW 16.1 mph - 0.00 in Rain Light Rain
5:53 PM 52.0 °F - 43.0 °F 71% 29.87 in 6.0 mi North 11.5 mph 18.4 mph 0.02 in Rain Light Rain
6:53 PM 50.0 °F - 45.0 °F 83% 29.88 in 10.0 mi NNE 6.9 mph - 0.01 in Rain Light Rain
7:53 PM 48.9 °F - 44.1 °F 83% 29.88 in 9.0 mi East 4.6 mph - 0.05 in Rain Light Rain
8:53 PM 48.0 °F - 45.0 °F 89% 29.90 in 10.0 mi WSW 3.5 mph - 0.00 in   Mostly Cloudy
9:53 PM 46.9 °F - 45.0 °F 93% 29.90 in 10.0 mi WNW 5.8 mph - 0.01 in   Overcast
10:53 PM 46.9 °F - 44.1 °F 90% 29.90 in 10.0 mi North 3.5 mph - N/A   Mostly Cloudy
11:53 PM 46.0 °F 43.9 °F 44.1 °F 93% 29.92 in 10.0 mi NNW 4.6 mph - N/A   Mostly Cloudy